Zurück zum Katalog

STARLINK-34714

AktivKommunikationSSO
NORAD 64939·PAYLOAD·🇺🇸 United States

Gestartet Jul 26, 2025 von Vandenberg Space Force Base

Loading…

Nächste Überflüge (nächste 24 Stunden)

TLE

AktuellSource: CelesTrak SupGP

Epoche: Sep 15, 2026, 03:42 UTC

1 64939C 25158H   26258.15465278 -.00020335  00000+0 -63108-3 0  2586
2 64939  97.2844 116.5795 0001819  97.3337 119.7113 15.33456822    15

Verfolge STARLINK-34714 in Echtzeit mit AllMySat

Download on the App Store